Regional Weather Roundup
Issued by NWS

Home | Current Version | Previous Version | Graphics & Text | Print | Product List | Glossary On
Versions: 1 2 3 4 5 6 7 8 9 10 11 12 13 14 15 16 17 18 19 20 21 22 23 24 25 26 27 28 29 30 31 32 33 34 35 36 37 38 39 40 41 42 43 44 45 46 47 48 49 50
000
ASUS43 KLSX 171807
RWRMO

WEATHER SUMMARY FOR MISSOURI
NATIONAL WEATHER SERVICE SPRINGFIELD MO
1200 PM CST TUE JAN 17 2017

NOTE: "FAIR" INDICATES FEW OR NO CLOUDS BELOW 12,000 FEET WITH NO
       SIGNIFICANT WEATHER AND/OR OBSTRUCTIONS TO VISIBILITY.
       CURRENT SKY AND/OR WEATHER CONDITIONS ARE NOT AVAILABLE FOR
       CHILLICOTHE AND FARMINGTON.

MOZ001>031-035>038-043-044-053-054-171900-
...NORTHERN AND WESTERN MISSOURI...

CITY           SKY/WX    TMP DP  RH WIND       PRES   REMARKS
KANSAS CTY INT CLOUDY    36  32  85 W9        30.08F WCI  29
6HR MIN TEMP:  34; 6HR MAX TEMP:  36;

KANSAS C DTWN  CLOUDY    37  34  89 W8        30.10F
6HR MIN TEMP:  35; 6HR MAX TEMP:  38;

LEE`S SUMMIT   CLOUDY    36  34  92 W9        30.09F WCI  29
6HR MIN TEMP:  34; 6HR MAX TEMP:  36;

ST JOSEPH      CLOUDY    35  35 100 NW12      30.10F FOG     WCI  27
6HR MIN TEMP:  33; 6HR MAX TEMP:  36;

CHILLICOTHE      N/A     36  34  92 W8        30.08S WCI  30
6HR MIN TEMP:  34; 6HR MAX TEMP:  37;

KIRKSVILLE     CLOUDY    36  34  92 W9        30.03S WCI  29
6HR MIN TEMP:  35; 6HR MAX TEMP:  37;


$$
MOZ066>068-077>081-088>096-101>105-171900-
...SOUTHWEST MISSOURI...

CITY           SKY/WX    TMP DP  RH WIND       PRES   REMARKS
SPRINGFIELD    CLOUDY    39  35  86 W12       30.11S
6HR MIN TEMP:  37; 6HR MAX TEMP:  39;

JOPLIN         CLOUDY    39  35  86 W8        30.16F
6HR MIN TEMP:  37; 6HR MAX TEMP:  39;

BRANSON        CLOUDY    39  34  81 W8        30.13S

$$
MOZ032>034-039>042-045>050-055>058-069>072-171900-
...CENTRAL MISSOURI...

CITY           SKY/WX    TMP DP  RH WIND       PRES   REMARKS
COLUMBIA       CLOUDY    38  36  92 W14       30.06F WCI  30
6HR MIN TEMP:  37; 6HR MAX TEMP:  39; 6HR PCP: TRACE;

JEFFERSON CITY CLOUDY    41  36  82 W10       30.08F
6HR MIN TEMP:  39; 6HR MAX TEMP:  42;

ROLLA          CLOUDY    40  38  93 W10       30.05F
6HR MIN TEMP:  39; 6HR MAX TEMP:  40;

SEDALIA        CLOUDY    39  36  89 W10       30.09F
6HR MIN TEMP:  37; 6HR MAX TEMP:  39;

WARRENSBURG    CLOUDY    36  34  93 W7        30.09F WCI  30
OSAGE BEACH    CLOUDY    39  35  86 W12       30.09F

$$
MOZ051-052-059>065-171900-
...EAST CENTRAL MISSOURI...

CITY           SKY/WX    TMP DP  RH WIND       PRES   REMARKS
ST LOUIS INTL  CLOUDY    47  38  71 W14       30.04R
6HR MIN TEMP:  44; 6HR MAX TEMP:  47;

SPIRIT OF STL  CLOUDY    44  39  82 W16G23    30.03F
6HR MIN TEMP:  42; 6HR MAX TEMP:  45;

ST CHARLES     CLOUDY    43  40  89 W18       30.03S
6HR MIN TEMP:  42; 6HR MAX TEMP:  45;


$$
MOZ072>076-082>087-097>100-106>115-171900-
...SOUTH CENTRAL AND SOUTHEAST MISSOURI...

CITY           SKY/WX    TMP DP  RH WIND       PRES   REMARKS
CAPE GIRARDEAU CLOUDY    45  39  79 W10       30.06F
6HR MIN TEMP:  43; 6HR MAX TEMP:  46;

FARMINGTON     CLOUDY    42  38  85 W9        30.05F
6HR MIN TEMP:  41; 6HR MAX TEMP:  42;

POPLAR BLUFF   CLOUDY    46  40  79 W6        30.08F
6HR MIN TEMP:  42; 6HR MAX TEMP:  46;

WEST PLAINS    CLOUDY    41  38  89 W10       30.09F
6HR MIN TEMP:  39; 6HR MAX TEMP:  41;


$$



USA.gov is the U.S. government's official web portal to all federal, state and local government web resources and services.